sat.trackr.live / text

‹ back to catalog

STARLINK-6066

NORAD 56105 · 2023-046N

PAYLOAD ACTIVE UNKNOWN

§ Identity

Operator
Country
US
Launch date
2023-03-29
Launch site
AFETR
Launch vehicle
Mass (kg)
RCS (m²)

Purposes: comms

External: N2YO · Heavens-Above · Gunter

§ Orbital elements

Epoch: 2026-09-20T09:00:58.631904Z

Period
94.27 min
Inclination
42.9994°
Eccentricity
0.0001477
Mean motion
15.27582200 rev/d
Perigee alt
482.0 km
Apogee alt
484.1 km
Semi-major
6,861.2 km
B*
2.5853e-4
RAAN
142.2825°
Arg perigee
262.5296°
Mean anomaly
97.5388°
Rev number
19,180

§ Raw data

STARLINK-60661 56105U 23046N   26263.37567861  .00006859  00000+0  25853-3 0  99972 56105  42.9994 142.2825 0001477 262.5296  97.5388 15.27582200191802

JSON: /api/v1/satellites/56105 · /tle

For live sub-satellite position, see the globe view (requires WebGL).

§ Visibility from observer

Set your observer location to see the next 7 days of passes ≥ 10°. The values pass through the URL so the page stays shareable.

No JS? Fill the form by hand. The geolocation button needs JavaScript.